Rochester, NY

3:40 PM EDT on September 27, 2016 (GMT -0400)
Greater Rochester International

Weather History for KROC - February, 2013

Change the Weather History Date:

Monday, February 25, 2013

  Actual Average Record
Temperature  
Mean Temperature 32 °F 28 °F  
Max Temperature 36 °F 36 °F 67 °F (1957)
Min Temperature 28 °F 20 °F -8 °F (1894)
Degree Days  
Heating Degree Days 33 37  
Month to date heating degree days 972 973  
Since 1 July heating degree days 4217 4677  
Cooling Degree Days 0 0  
Month to date cooling degree days 0 0  
Year to date cooling degree days 0 0  
Moisture  
Dew Point 26 °F    
Average Humidity 71    
Maximum Humidity 78    
Minimum Humidity 64    
Precipitation  
Precipitation T in 0.08 in 1.44 in (1961)
Month to date precipitation 1.42 1.72  
Year to date precipitation 2.89 4.13  
Snow  
Snow T in 0.70 in 9.50 in (1916)
Month to date snowfall 23.8 19.2  
Since 1 July snowfall 58.9 76.6  
Snow Depth 0.00 in    
Sea Level Pressure  
Sea Level Pressure 30.19 in    
Wind  
Wind Speed 6 mph (West)    
Max Wind Speed 13 mph    
Max Gust Speed 24 mph    
Visibility 10 miles    
Events Snow    
T = Trace of Precipitation, MM = Missing Value Source: NWS Daily Summary

Daily Weather History Graph

Daily Weather History Graph

Search for Another Location

Airport or City:

Trip Planner

Search our weather history database for the weather conditions in past years. The results will help you decide how hot, cold, wet, or windy it might be!

Date:

Astronomy

Feb. 25, 2013 Rise Set
Actual Time 6:52 AM EST 5:55 PM EST
Civil Twilight 6:24 AM EST 6:23 PM EST
Nautical Twilight 5:51 AM EST 6:56 PM EST
Astronomical Twilight 5:18 AM EST 7:29 PM EST
Moon 6:08 PM EST (2/25) 6:21 AM EST (2/25)
Length of Visible Light 11h 59m
Length of Day
11h 02m
Full, 100% of the Moon is Illuminated
Feb 25
Full
Feb 25
Full
Mar 4
Last Quarter
Mar 11
New
Mar 19
First Quarter

Hourly Weather History & Observations

Time (EST) Temp. Windchill Dew Point Humidity Pressure Visibility Wind Dir Wind Speed Gust Speed Precip Events Conditions
12:54 AM 32.0 °F 23.6 °F 24.1 °F 73% 30.09 in 10.0 mi West 10.4 mph - N/A   Overcast
1:54 AM 32.0 °F 25.6 °F 24.1 °F 73% 30.11 in 10.0 mi West 6.9 mph - N/A   Overcast
2:15 AM 30.2 °F 22.6 °F 24.8 °F 80% 30.09 in 9.0 mi West 8.1 mph - 0.00 in Snow Light Snow
2:54 AM 32.0 °F 23.6 °F 24.1 °F 73% 30.12 in 9.0 mi West 10.4 mph - 0.00 in Snow Light Snow
3:54 AM 32.0 °F 24.2 °F 25.0 °F 75% 30.12 in 9.0 mi West 9.2 mph - 0.00 in Snow Light Snow
4:54 AM 32.0 °F 24.8 °F 25.0 °F 75% 30.14 in 9.0 mi West 8.1 mph - 0.00 in   Overcast
5:54 AM 32.0 °F 26.4 °F 25.0 °F 75% 30.16 in 10.0 mi West 5.8 mph - N/A   Overcast
6:54 AM 30.9 °F 24.3 °F 25.0 °F 79% 30.17 in 10.0 mi West 6.9 mph - N/A   Overcast
7:54 AM 32.0 °F 24.8 °F 25.0 °F 75% 30.17 in 10.0 mi West 8.1 mph - N/A   Overcast
8:54 AM 33.1 °F 24.9 °F 26.1 °F 75% 30.20 in 10.0 mi West 10.4 mph - N/A   Overcast
9:54 AM 33.1 °F 27.7 °F 26.1 °F 75% 30.21 in 10.0 mi West 5.8 mph - N/A   Overcast
10:54 AM 34.0 °F 28.0 °F 26.1 °F 73% 30.22 in 10.0 mi West 6.9 mph - N/A   Overcast
11:54 AM 36.0 °F 31.1 °F 28.0 °F 73% 30.23 in 10.0 mi WSW 5.8 mph - N/A   Overcast
12:50 PM 35.6 °F 28.6 °F 24.8 °F 65% 30.21 in 10.0 mi WSW 9.2 mph - N/A   Overcast
12:54 PM 36.0 °F 29.6 °F 26.1 °F 67% 30.23 in 10.0 mi West 8.1 mph - N/A   Overcast
1:54 PM 36.0 °F 28.5 °F 25.0 °F 64% 30.23 in 10.0 mi West 10.4 mph - N/A   Overcast
2:54 PM 36.0 °F 29.0 °F 26.1 °F 67% 30.22 in 10.0 mi WNW 9.2 mph - N/A   Overcast
3:52 PM 35.6 °F 29.9 °F 26.6 °F 70% 30.20 in 10.0 mi NW 6.9 mph - N/A   Overcast
3:54 PM 36.0 °F 30.3 °F 26.1 °F 67% 30.22 in 10.0 mi WNW 6.9 mph - N/A   Overcast
4:54 PM 35.1 °F 32.2 °F 27.0 °F 72% 30.23 in 10.0 mi NW 3.5 mph - N/A   Overcast
5:54 PM 34.0 °F - 27.0 °F 75% 30.23 in 10.0 mi Calm Calm - N/A   Overcast
6:54 PM 34.0 °F - 27.0 °F 75% 30.24 in 10.0 mi Calm Calm - N/A   Overcast
7:54 PM 34.0 °F - 27.0 °F 75% 30.25 in 10.0 mi Calm Calm - N/A   Overcast
8:54 PM 33.1 °F - 27.0 °F 78% 30.24 in 10.0 mi Calm Calm - N/A   Overcast
9:54 PM 32.0 °F - 27.0 °F 82% 30.25 in 9.0 mi Calm Calm - N/A   Overcast
10:54 PM 30.9 °F - 25.0 °F 79% 30.25 in 9.0 mi Calm Calm - N/A   Scattered Clouds
11:54 PM 28.9 °F - 26.1 °F 89% 30.22 in 8.0 mi Calm Calm - N/A   Partly Cloudy